This demonstration page uses our WeatherBlox Daily Observations layout. Learn more.

Left ArrowRight Arrow

Hourly Observations for April 16, 2018

Temp ( °F °C ) Dew Point ( °F °C ) Humidity (%) Winds ( mph kmh ) Pressure ( in mb ) Visibility ( mi km ) Precip ( " mm )
12:53 am 00:53 Mostly Clear 43 6.1 37 2.8 80 80 S 5 7 29.83 1010 10 16 0.00 0.00
1:53 am 01:53 Mostly Cloudy 44 6.7 37 2.8 76 76 S 6 9 29.84 1010 10 16 0.00 0.00
2:53 am 02:53 Cloudy 47 8.3 38 3.3 71 71 SSW 5 7 29.86 1011 10 16 0.00 0.00
3:53 am 03:53 Cloudy 45 7.2 38 3.3 77 77 Calm 29.87 1012 10 16 0.01 0.25
4:53 am 04:53 Cloudy 45 7.2 40 4.4 83 83 W 3 6 29.88 1012 10 16 0.00 0.00
5:53 am 05:53 Cloudy 45 7.2 41 5 86 86 Calm 29.90 1012 10 16 0.00 0.03
6:53 am 06:53 Cloudy 44 6.7 40 4.4 85 85 E 3 6 29.91 1013 10 16 0.00 0.00
7:53 am 07:53 Partly Cloudy 46 7.8 40 4.4 79 79 SSW 3 6 29.93 1014 10 16 0.00 0.00
8:32 am 08:32 Mostly Cloudy 47 8.3 40 4.4 77 77 Calm 29.94 1014 10 16 0.00 0.00
8:53 am 08:53 Cloudy 48 8.9 41 5 77 77 SW 5 7 29.95 1014 10 16 0.00 0.00
9:53 am 09:53 Cloudy 51 10.6 40 4.4 66 66 S 10 17 29.95 1014 10 16 0.00 0.00
10:53 am 10:53 Mostly Sunny 52 11.1 41 5 66 66 S 7 11 29.95 1014 10 16 0.00 0.00
11:53 am 11:53 Mostly Cloudy 55 12.8 40 4.4 57 57 S 8 13 29.96 1014 10 16 0.00 0.00
12:53 pm 12:53 Mostly Cloudy 54 12.2 39 3.9 57 57 W 9 15 29.95 1014 10 16 0.00 0.00
1:53 pm 13:53 Partly Cloudy 54 12.2 38 3.3 55 55 Calm 29.94 1014 10 16 0.00 0.00
2:53 pm 14:53 Sunny 55 12.8 37 2.8 51 51 WSW 5 7 29.94 1014 10 16 0.00 0.00
3:53 pm 15:53 Mostly Sunny 58 14.4 34 1.1 41 41 WSW 7 11 29.93 1014 10 16 0.00 0.00
4:53 pm 16:53 Partly Cloudy 57 13.9 35 1.7 44 44 WSW 9 15 29.94 1014 10 16 0.00 0.00
5:53 pm 17:53 Partly Cloudy 55 12.8 40 4.4 57 57 SSE 16 26 29.96 1015 10 16 0.00 0.00
6:51 pm 18:51 Partly Cloudy with Nearby Thunderstorms 54 12 39 4 58 58 SSE 13 20 30.00 1016 10 16 0.00 0.00
6:53 pm 18:53 Partly Cloudy with Nearby Thunderstorms 53 11.7 40 4.4 61 61 SSE 14 22 29.98 1015 10 16 0.00 0.00
7:21 pm 19:21 Mostly Cloudy with Light Rain 52 11.1 41 5 66 66 SE 7 11 30.00 1016 10 16 0.00 0.03
7:53 pm 19:53 Cloudy with Light Rain 50 10 41 5 71 71 SSW 6 9 30.01 1016 10 16 0.01 0.25
8:53 pm 20:53 Cloudy 49 9.4 40 4.4 71 71 E 6 9 30.07 1018 10 16 0.01 0.25
9:53 pm 21:53 Mostly Cloudy 47 8.3 39 3.9 74 74 Calm 30.11 1020 10 16 0.00 0.00
10:53 pm 22:53 Mostly Cloudy 45 7.2 41 5 86 86 W 3 6 30.14 1021 10 16 0.00 0.00
11:53 pm 23:53 Cloudy 45 7.2 41 5 86 86 NNW 3 6 30.17 1022 10 16 0.00 0.00

Powered by AerisWeather